Alexandria, Egypt

10:55 AM EET on April 26, 2017 (GMT +0200)
Alexandria

Weather History for HEAX - January, 2013

Change the Weather History Date:

Monday, January 21, 2013

  Actual Average Record
Temperature  
Mean Temperature 62 °F -  
Max Temperature 73 °F 63 °F 77 °F (2015)
Min Temperature 52 °F 48 °F 42 °F (1999)
Degree Days  
Heating Degree Days 2    
Growing Degree Days 12 (Base 50)    
Moisture  
Dew Point 50 °F    
Average Humidity 68    
Maximum Humidity 88    
Minimum Humidity 26    
Precipitation  
Precipitation 0.00 in 0.04 in - ()
Sea Level Pressure  
Sea Level Pressure 29.99 in    
Wind  
Wind Speed 5 mph ()    
Max Wind Speed 8 mph    
Max Gust Speed -    
Visibility 6.0 miles    
Events      
Averages and records for this station are not official NWS values.
T = Trace of Precipitation, MM = Missing Value Source: Averaged Metar Reports

Daily Weather History Graph

Daily Weather History Graph

Search for Another Location

Airport or City:

Trip Planner

Search our weather history database for the weather conditions in past years. The results will help you decide how hot, cold, wet, or windy it might be!

Date:

Astronomy

Jan. 21, 2013 Rise Set
Actual Time 6:57 AM EET 5:25 PM EET
Civil Twilight 6:31 AM EET 5:51 PM EET
Nautical Twilight 6:02 AM EET 6:20 PM EET
Astronomical Twilight 5:33 AM EET 6:49 PM EET
Moon 12:52 PM EET (1/21) 2:07 AM EET (1/21)
Length of Visible Light 11h 19m
Length of Day
10h 27m
Waxing Gibbous, 72% of the Moon is Illuminated
Jan 21
Waxing Gibbous
Jan 27
Full
Feb 3
Last Quarter
Feb 10
New
Feb 17
First Quarter

Hourly Weather History & Observations

Time (EET) Temp. Dew Point Humidity Pressure Visibility Wind Dir Wind Speed Gust Speed Precip Events Conditions
12:00 AM 57.2 °F 50.0 °F 77% 30.12 in - East 5.8 mph - N/A   Clear
1:00 AM 57.2 °F 46.4 °F 67% 30.12 in - East 4.6 mph - N/A   Clear
2:00 AM 55 °F 49 °F 72% 30.09 in 6 mi East 4.6 mph - -  
2:00 AM 55.4 °F 48.2 °F 77% 30.09 in - East 4.6 mph - N/A   Clear
3:00 AM 55.4 °F 48.2 °F 77% 30.09 in - ENE 5.8 mph - N/A   Clear
4:00 AM 53.6 °F 46.4 °F 77% 30.09 in - ENE 6.9 mph - N/A   Clear
5:00 AM 53.6 °F 48.2 °F 82% 30.06 in - East 3.5 mph - N/A   Clear
6:00 AM 55.4 °F 48.2 °F 77% 30.09 in - ENE 4.6 mph - N/A   Clear
7:00 AM 53.6 °F 50.0 °F 88% 30.04 in - ENE 5.8 mph - N/A   Clear
8:00 AM 53 °F 50 °F 84% 30.05 in 6 mi East 6.9 mph - -  
8:00 AM 53.6 °F 50.0 °F 88% 30.04 in - East 6.9 mph - N/A   Clear
9:00 AM 53.6 °F 50.0 °F 88% 30.04 in - East 8.1 mph - N/A   Clear
10:00 AM 59.0 °F 48.2 °F 67% 30.04 in - East 6.9 mph - N/A   Clear
11:00 AM 64.4 °F 48.2 °F 56% 30.01 in - ESE 8.1 mph - N/A   Clear
12:00 PM 68.0 °F 44.6 °F 43% 29.98 in - ESE 8.1 mph - N/A   Clear
1:00 PM 69.8 °F 46.4 °F 43% 29.95 in - East 8.1 mph - N/A   Clear
2:00 PM 73 °F 46 °F 26% 29.92 in 6 mi ESE 6.9 mph - -  
2:00 PM 73.4 °F 46.4 °F 38% 29.92 in - ESE 6.9 mph - N/A   Clear
3:00 PM 73.4 °F 50.0 °F 44% 29.89 in - East 5.8 mph - N/A   Clear
4:00 PM 71.6 °F 50.0 °F 46% 29.89 in - East 5.8 mph - N/A   Clear
5:00 PM 69.8 °F 50.0 °F 49% 29.89 in - East 4.6 mph - N/A   Clear
6:00 PM 66.2 °F 53.6 °F 64% 29.89 in - East 2.3 mph - N/A   Clear
7:00 PM 64.4 °F 55.4 °F 73% 29.92 in - East 3.5 mph - N/A   Clear
8:00 PM 62 °F 55 °F 70% 29.92 in 6 mi ENE 4.6 mph - -  
8:00 PM 60.8 °F 55.4 °F 82% 29.92 in - ENE 4.6 mph - N/A   Clear
9:00 PM 59.0 °F 55.4 °F 88% 29.92 in - East 5.8 mph - N/A   Clear
10:00 PM 59.0 °F 53.6 °F 82% 29.92 in - East 8.1 mph - N/A   Clear
11:00 PM 55.4 °F 50.0 °F 82% 29.89 in - ESE 2.3 mph - N/A   Clear